Pipestone, MN

6:22 PM CDT on May 26, 2017 (GMT -0500)
Pipestone Municipal

Weather History for KPQN - May, 2013

Change the Weather History Date:

Monday, May 20, 2013

  Actual Average Record
Temperature  
Mean Temperature 60 °F -  
Max Temperature 64 °F 64 °F 82 °F (2007)
Min Temperature 55 °F 45 °F 30 °F (1997)
Degree Days  
Heating Degree Days 6    
Growing Degree Days 10 (Base 50)    
Moisture  
Dew Point 55 °F    
Average Humidity 84    
Maximum Humidity 100    
Minimum Humidity 64    
Precipitation  
Precipitation 0.00 in - - ()
Sea Level Pressure  
Sea Level Pressure 29.50 in    
Wind  
Wind Speed 12 mph (SW)    
Max Wind Speed 20 mph    
Max Gust Speed 26 mph    
Visibility 8 miles    
Events Fog , Rain    
Averages and records for this station are not official NWS values.
T = Trace of Precipitation, MM = Missing Value Source: NWS Daily Summary

Daily Weather History Graph

Daily Weather History Graph

Search for Another Location

Airport or City:

Trip Planner

Search our weather history database for the weather conditions in past years. The results will help you decide how hot, cold, wet, or windy it might be!

Date:

Astronomy

May. 20, 2013 Rise Set
Actual Time 5:53 AM CDT 8:50 PM CDT
Civil Twilight 5:19 AM CDT 9:24 PM CDT
Nautical Twilight 4:36 AM CDT 10:07 PM CDT
Astronomical Twilight 3:45 AM CDT 10:59 PM CDT
Moon 3:49 PM CDT (5/20) 2:59 AM CDT (5/20)
Length of Visible Light 16h 04m
Length of Day
14h 56m
Waxing Gibbous, 75% of the Moon is Illuminated
May 20
Waxing Gibbous
May 24
Full
May 31
Last Quarter
Jun 8
New
Jun 16
First Quarter

Hourly Weather History & Observations

Time (CDT) Temp. Dew Point Humidity Pressure Visibility Wind Dir Wind Speed Gust Speed Precip Events Conditions
12:13 AM 62.6 °F 60.8 °F 94% 29.54 in 7.0 mi East 10.4 mph - N/A   Overcast
12:33 AM 62.6 °F 60.8 °F 94% 29.54 in 5.0 mi ESE 10.4 mph - N/A   Overcast
12:54 AM 62.6 °F 60.8 °F 94% 29.52 in 7.0 mi ESE 13.8 mph 17.3 mph N/A   Scattered Clouds
1:13 AM 62.6 °F 60.8 °F 94% 29.51 in 5.0 mi ESE 12.7 mph 18.4 mph N/A   Clear
1:33 AM 62.6 °F 60.8 °F 94% 29.49 in 5.0 mi ESE 11.5 mph 16.1 mph N/A   Clear
1:53 AM 62.6 °F 60.8 °F 94% 29.49 in 4.0 mi ESE 11.5 mph - N/A   Clear
2:13 AM 62.6 °F 60.8 °F 94% 29.48 in 4.0 mi ESE 11.5 mph 17.3 mph N/A   Clear
2:33 AM 62.6 °F 60.8 °F 94% 29.47 in 4.0 mi ESE 11.5 mph - N/A   Scattered Clouds
2:53 AM 62.6 °F 60.8 °F 94% 29.47 in 5.0 mi ESE 10.4 mph - N/A   Mostly Cloudy
3:13 AM 62.6 °F 60.8 °F 94% 29.49 in 4.0 mi SSE 10.4 mph - N/A Rain Light Rain
3:33 AM 60.8 °F 59.0 °F 94% 29.49 in 7.0 mi SSW 15.0 mph 19.6 mph N/A   Overcast
3:53 AM 59.0 °F 55.4 °F 88% 29.49 in 7.0 mi SW 12.7 mph - N/A   Overcast
4:13 AM 57.2 °F 55.4 °F 94% 29.48 in 7.0 mi SW 5.8 mph - N/A   Overcast
4:33 AM 57.2 °F 55.4 °F 94% 29.48 in 7.0 mi SSW 6.9 mph - N/A   Mostly Cloudy
4:53 AM 57.2 °F 55.4 °F 94% 29.47 in 7.0 mi SW 5.8 mph - N/A   Overcast
5:13 AM 57.2 °F 55.4 °F 94% 29.47 in 7.0 mi SSW 9.2 mph - N/A   Overcast
5:33 AM 57.2 °F 55.4 °F 94% 29.47 in 7.0 mi SSW 6.9 mph - N/A Rain Light Rain
5:53 AM 57.2 °F 55.4 °F 94% 29.47 in 5.0 mi SSW 6.9 mph - N/A   Mostly Cloudy
6:13 AM 57.2 °F 55.4 °F 94% 29.47 in 4.0 mi SSW 6.9 mph - N/A   Mostly Cloudy
6:33 AM 57.2 °F 55.4 °F 94% 29.47 in 4.0 mi South 6.9 mph - N/A   Overcast
6:53 AM 57.2 °F 55.4 °F 94% 29.47 in 3.0 mi South 10.4 mph - N/A   Overcast
7:13 AM 57.2 °F 55.4 °F 94% 29.47 in 2.5 mi South 11.5 mph - N/A   Overcast
7:33 AM 57.2 °F 55.4 °F 94% 29.47 in 1.5 mi SSW 12.7 mph - N/A   Overcast
7:53 AM 57.2 °F 55.4 °F 94% 29.47 in 0.2 mi SSW 12.7 mph - N/A Fog Fog
8:13 AM 57.2 °F 57.2 °F 100% 29.48 in 0.2 mi SSW 13.8 mph - N/A Fog Fog
8:33 AM 57.2 °F 57.2 °F 100% 29.48 in 1.5 mi SW 15.0 mph - N/A   Overcast
8:53 AM 57.2 °F 55.4 °F 94% 29.49 in 5.0 mi SW 15.0 mph - N/A   Overcast
9:13 AM 57.2 °F 55.4 °F 94% 29.50 in 10.0 mi WSW 15.0 mph - N/A   Overcast
9:33 AM 57.2 °F 55.4 °F 94% 29.50 in 10.0 mi SW 13.8 mph - N/A   Overcast
9:53 AM 57.2 °F 55.4 °F 94% 29.51 in 4.0 mi SW 15.0 mph 21.9 mph N/A Rain Light Rain
10:13 AM 57.2 °F 55.4 °F 94% 29.51 in 2.5 mi WSW 12.7 mph - N/A   Light Drizzle
10:33 AM 55.4 °F 55.4 °F 100% 29.51 in 4.0 mi WSW 13.8 mph - N/A   Overcast
10:53 AM 57.2 °F 53.6 °F 88% 29.51 in 10.0 mi WSW 16.1 mph 19.6 mph N/A   Overcast
11:13 AM 57.2 °F 53.6 °F 88% 29.51 in 10.0 mi WSW 13.8 mph 17.3 mph N/A   Overcast
11:33 AM 59.0 °F 53.6 °F 82% 29.51 in 10.0 mi WSW 15.0 mph 18.4 mph N/A   Overcast
11:53 AM 60.8 °F 53.6 °F 77% 29.51 in 10.0 mi WSW 17.3 mph 20.7 mph N/A   Overcast
12:13 PM 62.6 °F 53.6 °F 72% 29.51 in 10.0 mi SW 17.3 mph 20.7 mph N/A   Overcast
12:32 PM 62.6 °F 53.6 °F 72% 29.51 in 10.0 mi WSW 19.6 mph - N/A   Overcast
12:53 PM 62.6 °F 53.6 °F 72% 29.51 in 10.0 mi WSW 16.1 mph - N/A   Overcast
1:13 PM 64.4 °F 53.6 °F 68% 29.51 in 10.0 mi SW 16.1 mph - N/A   Overcast
1:33 PM 62.6 °F 53.6 °F 72% 29.51 in 10.0 mi WSW 17.3 mph 25.3 mph N/A   Overcast
1:53 PM 60.8 °F 53.6 °F 77% 29.52 in 7.0 mi WSW 16.1 mph 26.5 mph N/A Rain Rain
2:13 PM 62.6 °F 53.6 °F 72% 29.52 in 10.0 mi SW 17.3 mph 23.0 mph N/A   Overcast
2:33 PM 60.8 °F 53.6 °F 77% 29.52 in 7.0 mi WSW 15.0 mph - N/A Rain Light Rain
2:53 PM 60.8 °F 55.4 °F 82% 29.52 in 10.0 mi SW 13.8 mph - N/A   Overcast
3:13 PM 62.6 °F 53.6 °F 72% 29.52 in 10.0 mi SW 16.1 mph 23.0 mph N/A   Overcast
3:33 PM 62.6 °F 51.8 °F 68% 29.52 in 10.0 mi WSW 16.1 mph - N/A   Overcast
4:13 PM 62.6 °F 53.6 °F 72% 29.52 in 10.0 mi WSW 13.8 mph - N/A   Overcast
4:33 PM 64.4 °F 51.8 °F 64% 29.51 in 10.0 mi WSW 13.8 mph 19.6 mph N/A   Overcast
4:53 PM 64.4 °F 53.6 °F 68% 29.51 in 10.0 mi WSW 17.3 mph 20.7 mph N/A   Mostly Cloudy
5:13 PM 64.4 °F 51.8 °F 64% 29.51 in 10.0 mi WSW 17.3 mph 21.9 mph N/A   Mostly Cloudy
5:33 PM 64.4 °F 51.8 °F 64% 29.51 in 10.0 mi SW 17.3 mph 23.0 mph N/A   Overcast
5:53 PM 64.4 °F 51.8 °F 64% 29.51 in 10.0 mi SW 17.3 mph 23.0 mph N/A   Mostly Cloudy
6:13 PM 64.4 °F 51.8 °F 64% 29.50 in 10.0 mi SW 16.1 mph 19.6 mph N/A   Mostly Cloudy
6:33 PM 64.4 °F 51.8 °F 64% 29.50 in 10.0 mi SW 11.5 mph - N/A   Overcast
6:52 PM 62.6 °F 51.8 °F 68% 29.50 in 10.0 mi SW 10.4 mph - N/A   Overcast
7:13 PM 62.6 °F 51.8 °F 68% 29.50 in 10.0 mi SW 10.4 mph - N/A   Overcast
7:33 PM 62.6 °F 53.6 °F 72% 29.50 in 10.0 mi SW 8.1 mph - N/A   Overcast
7:53 PM 62.6 °F 51.8 °F 68% 29.50 in 10.0 mi WSW 9.2 mph - N/A   Overcast
8:13 PM 62.6 °F 51.8 °F 68% 29.50 in 10.0 mi SW 9.2 mph - N/A   Overcast
8:33 PM 60.8 °F 53.6 °F 77% 29.50 in 10.0 mi SW 6.9 mph - N/A   Overcast
8:53 PM 60.8 °F 53.6 °F 77% 29.49 in 10.0 mi SW 6.9 mph - N/A   Overcast
9:13 PM 59.0 °F 53.6 °F 82% 29.49 in 10.0 mi SW 6.9 mph - N/A   Overcast
9:33 PM 59.0 °F 51.8 °F 77% 29.49 in 10.0 mi SW 5.8 mph - N/A   Mostly Cloudy
9:53 PM 57.2 °F 51.8 °F 82% 29.50 in 10.0 mi SW 6.9 mph - N/A   Scattered Clouds
10:13 PM 57.2 °F 51.8 °F 82% 29.50 in 10.0 mi SW 5.8 mph - N/A   Mostly Cloudy
10:33 PM 57.2 °F 53.6 °F 88% 29.50 in 10.0 mi SW 5.8 mph - N/A   Overcast
10:53 PM 57.2 °F 53.6 °F 88% 29.50 in 10.0 mi SW 3.5 mph - N/A   Overcast
11:13 PM 57.2 °F 55.4 °F 94% 29.50 in 10.0 mi SW 4.6 mph - N/A   Overcast
11:33 PM 57.2 °F 55.4 °F 94% 29.50 in 10.0 mi West 8.1 mph - N/A   Overcast
11:53 PM 55.4 °F 53.6 °F 94% 29.51 in 4.0 mi West 12.7 mph - N/A   Heavy Drizzle